Le nostre stazioni meteo in Italia

Pubblicità
Il mio iltempo24.it
Foggia Amendola, Italia (16261): Temperatura & dewpoint: 31.05.2020 09:00:00 - 06.06.2020 09:00:00 (CEST)Foggia Amendola, Italia (16261): velocità del vento: 31.05.2020 09:00:00 - 06.06.2020 09:00:00 (CEST)Foggia Amendola, Italia (16261): direzione del vento: 31.05.2020 09:00:00 - 06.06.2020 09:00:00 (CEST)Foggia Amendola, Italia (16261): reduced air pressure: 31.05.2020 09:00:00 - 06.06.2020 09:00:00 (CEST)Foggia Amendola, Italia (16261): visibility: 31.05.2020 09:00:00 - 06.06.2020 09:00:00 (CEST)Foggia Amendola, Italia (16261): ore di luce: 31.05.2020 09:00:00 - 06.06.2020 09:00:00 (CEST)
Data & Tempo tt [°C] td [°C] ff [km/h] ff [kn] dd ppp [hPa] vv [km] sd [min]
06.06.2020 09:00:00 18,0 16,0 21 11 O - 10 -
06.06.2020 08:00:00 15,7 14,9 15 8 O 1006,5 15 0
06.06.2020 07:00:00 15,0 14,0 11 6 ONO - 10 -
06.06.2020 06:00:00 14,0 14,0 11 6 O - 10 -
06.06.2020 05:00:00 14,7 14,4 11 6 O 1005,2 15 0
06.06.2020 04:00:00 15,0 14,0 9 5 ONO - 10 -
06.06.2020 03:00:00 16,0 15,0 8 4 OSO - 10 -
06.06.2020 02:00:00 15,6 14,8 8 4 OSO 1005,0 15 0
06.06.2020 01:00:00 16,0 15,0 2 1 - - 10 -
06.06.2020 00:00:00 16,0 15,0 2 1 SSE - 10 -
05.06.2020 23:00:00 15,6 15,0 4 2 N 1005,5 12 0
05.06.2020 22:00:00 16,0 15,0 11 6 E - 10 -
05.06.2020 21:00:00 16,0 15,0 18 10 E - 10 -
05.06.2020 20:00:00 16,6 15,6 15 8 E 1004,9 12 0
05.06.2020 19:00:00 17,0 15,0 15 8 E - 10 -
05.06.2020 18:00:00 18,0 16,0 11 6 ENE - 10 -
05.06.2020 17:00:00 17,3 15,8 15 8 E 1003,9 10 0
05.06.2020 16:00:00 17,0 16,0 13 7 ESE - 8 -
05.06.2020 15:00:00 17,0 15,0 11 6 S - 5 -
05.06.2020 14:00:00 18,2 16,1 9 5 SE 1005,3 4,5 0
05.06.2020 13:00:00 20,0 16,0 4 2 - - 6 -
05.06.2020 12:00:00 21,0 14,0 16 9 S - 7 -
05.06.2020 11:00:00 24,4 13,0 16 9 SSO 1002,6 12 0
05.06.2020 10:00:00 24,0 14,0 24 13 SSO - 10 -
05.06.2020 09:00:00 24,0 13,0 8 4 S - 10 -
05.06.2020 08:00:00 24,2 12,5 15 8 SSE 1002,5 10 36
05.06.2020 07:00:00 24,0 14,0 15 8 SSE - 10 -
05.06.2020 06:00:00 22,0 13,0 18 10 SSE - 10 -
05.06.2020 05:00:00 21,4 12,8 16 9 SSE 1003,0 10 -
05.06.2020 04:00:00 20,0 12,0 13 7 E - 10 -
05.06.2020 03:00:00 19,0 11,0 11 6 E - 10 -
05.06.2020 02:00:00 18,6 10,2 9 5 E 1004,1 10 -
05.06.2020 01:00:00 19,0 9,0 9 5 ESE - 10 -
05.06.2020 00:00:00 19,0 10,0 11 6 SE - 10 -
04.06.2020 23:00:00 20,2 9,2 9 5 SE 1005,7 10 -
04.06.2020 22:00:00 22,0 8,0 11 6 SSE - 10 -
04.06.2020 21:00:00 23,0 8,0 8 4 SSE - 10 -
04.06.2020 20:00:00 24,6 6,4 13 7 SSO 1005,5 20 24
04.06.2020 19:00:00 28,0 8,0 15 8 SSO - 10 -
04.06.2020 18:00:00 28,0 9,0 15 8 SSO - 10 -
04.06.2020 17:00:00 28,0 8,8 15 8 SSO 1005,6 20 36
04.06.2020 16:00:00 - - - - - - - -
04.06.2020 15:00:00 28,0 8,0 22 12 SO - 10 -
04.06.2020 14:00:00 27,6 9,4 16 9 SSO 1006,6 20 42
04.06.2020 13:00:00 27,0 9,0 18 10 SSO - 10 -
04.06.2020 12:00:00 26,0 11,0 22 12 OSO - 10 -
04.06.2020 11:00:00 25,6 10,6 16 9 SO 1007,5 20 60
04.06.2020 10:00:00 22,0 13,0 15 8 SO - 10 -
04.06.2020 09:00:00 20,0 14,0 16 9 SSO - 10 -
04.06.2020 08:00:00 17,5 13,8 13 7 SO 1007,8 20 60
04.06.2020 07:00:00 16,0 13,0 9 5 SSO - 10 -
04.06.2020 06:00:00 16,0 12,0 0 0 SSO - 10 -
04.06.2020 05:00:00 15,8 12,4 5 3 SSO 1007,8 20 0
04.06.2020 04:00:00 15,0 12,0 9 5 SSO - 10 -
04.06.2020 03:00:00 16,0 13,0 8 4 O - 10 -
04.06.2020 02:00:00 16,4 12,5 9 5 SSO 1008,5 20 0
04.06.2020 01:00:00 17,0 13,0 9 5 SSO - 10 -
04.06.2020 00:00:00 17,0 13,0 11 6 SSO - 10 -
03.06.2020 23:00:00 17,4 12,7 5 3 SE 1009,6 20 0
03.06.2020 22:00:00 18,0 14,0 5 3 E - 10 -
03.06.2020 21:00:00 19,0 15,0 5 3 - - 10 -
03.06.2020 20:00:00 21,6 12,5 9 5 N 1008,7 20 0
03.06.2020 19:00:00 23,0 11,0 8 4 E - 10 -
03.06.2020 18:00:00 25,0 8,0 13 7 ESE - 10 -
03.06.2020 17:00:00 25,2 8,2 22 12 E 1007,9 15 60
03.06.2020 16:00:00 25,0 9,0 24 13 E - 10 -
03.06.2020 15:00:00 25,0 9,0 24 13 E - 10 -
03.06.2020 14:00:00 25,4 10,1 21 11 ENE 1009,0 20 54
03.06.2020 13:00:00 25,0 9,0 9 5 NO - 10 -
03.06.2020 12:00:00 25,0 10,0 13 7 O - 10 -
03.06.2020 11:00:00 24,6 10,1 9 5 OSO 1010,6 20 60
03.06.2020 10:00:00 24,0 10,0 9 5 O - 10 -
03.06.2020 09:00:00 24,0 10,0 13 7 O - 10 -
03.06.2020 08:00:00 23,7 10,4 9 5 ONO 1010,8 35 60
03.06.2020 07:00:00 23,0 11,0 11 6 ONO - 10 -
03.06.2020 06:00:00 22,0 12,0 9 5 ONO - 10 -
03.06.2020 05:00:00 21,4 12,0 13 7 O 1010,2 15 -
03.06.2020 04:00:00 21,0 11,0 9 5 O - 10 -
03.06.2020 03:00:00 20,0 12,0 5 3 O - 10 -
03.06.2020 02:00:00 18,9 12,2 4 2 SSO 1011,4 15 -
03.06.2020 01:00:00 17,0 12,0 9 5 O - 10 -
03.06.2020 00:00:00 17,0 11,0 11 6 OSO - 10 -
02.06.2020 23:00:00 15,9 11,1 9 5 O 1012,0 15 -
02.06.2020 22:00:00 16,0 11,0 9 5 ONO - 10 -
02.06.2020 21:00:00 16,0 12,0 9 5 ONO - 10 -
02.06.2020 20:00:00 15,6 12,5 13 7 ONO 1011,3 35 54
02.06.2020 19:00:00 16,0 13,0 16 9 NO - 10 -
02.06.2020 18:00:00 15,0 12,0 21 11 NNO - 10 -
02.06.2020 17:00:00 15,5 12,1 21 11 NNO 1012,2 35 60
02.06.2020 16:00:00 16,0 12,0 9 5 NO - 10 -
02.06.2020 15:00:00 16,0 13,0 22 12 ONO - 10 -
02.06.2020 14:00:00 15,0 12,9 24 13 NO 1013,5 35 42
02.06.2020 13:00:00 15,0 12,0 22 12 NNO - 10 -
02.06.2020 12:00:00 14,0 12,0 26 14 NNO - 10 -
02.06.2020 11:00:00 14,5 11,8 22 12 NO 1014,0 35 54
02.06.2020 10:00:00 16,0 12,0 21 11 ONO - 10 -
02.06.2020 09:00:00 16,0 12,0 24 13 ONO - 10 -
02.06.2020 08:00:00 16,2 11,2 21 11 NNO 1014,4 20 60
02.06.2020 07:00:00 17,0 11,0 11 6 O - 10 -
02.06.2020 06:00:00 18,0 10,0 11 6 O - 10 -
02.06.2020 05:00:00 18,1 9,5 16 9 O 1014,5 12 -
02.06.2020 04:00:00 19,0 9,0 22 12 O - 10 -
02.06.2020 03:00:00 19,0 9,0 21 11 O - 10 -
02.06.2020 02:00:00 19,9 9,2 22 12 O 1015,5 12 -
02.06.2020 01:00:00 20,0 9,0 15 8 O - 10 -
02.06.2020 00:00:00 21,0 10,0 13 7 O - 10 -
01.06.2020 23:00:00 20,8 9,4 21 11 O 1015,2 12 -
01.06.2020 22:00:00 22,0 9,0 13 7 ONO - 10 -
01.06.2020 21:00:00 21,0 9,0 16 9 NNO - 10 -
01.06.2020 20:00:00 21,5 8,7 21 11 NNO 1015,3 15 60
01.06.2020 19:00:00 21,0 9,0 24 13 NO - 10 -
01.06.2020 18:00:00 21,0 9,0 28 15 NNO - 10 -
01.06.2020 17:00:00 20,4 8,1 22 12 NO 1015,5 20 42
01.06.2020 16:00:00 21,0 9,0 26 14 NNO - 10 -
01.06.2020 15:00:00 21,0 9,0 21 11 NNO - 10 -
01.06.2020 14:00:00 21,0 8,4 24 13 NO 1015,7 20 48
01.06.2020 13:00:00 20,0 8,0 26 14 NNO - 10 -
01.06.2020 12:00:00 21,0 9,0 26 14 NNO - 10 -
01.06.2020 11:00:00 19,8 10,5 21 11 NNO 1012,0 20 36
01.06.2020 10:00:00 12,0 11,0 26 14 NO - 10 -
01.06.2020 09:00:00 12,0 12,0 13 7 O - 10 -
01.06.2020 08:00:00 12,8 12,0 15 8 O 1015,6 15 0
01.06.2020 07:00:00 13,0 12,0 16 9 O - 10 -
01.06.2020 06:00:00 13,0 12,0 13 7 O - 10 -
01.06.2020 05:00:00 13,8 12,4 11 6 O 1015,3 15 -
01.06.2020 04:00:00 14,0 11,0 13 7 O - 10 -
01.06.2020 03:00:00 15,0 13,0 11 6 O - 10 -
01.06.2020 02:00:00 15,2 12,0 5 3 OSO 1015,8 20 -
01.06.2020 01:00:00 15,0 12,0 13 7 O - 10 -
01.06.2020 00:00:00 15,0 12,0 13 7 O - 10 -
31.05.2020 23:00:00 14,8 11,2 16 9 ONO 1015,9 20 -
31.05.2020 22:00:00 14,0 12,0 18 10 NO - 10 -
31.05.2020 21:00:00 14,0 12,0 5 3 S - 10 -
31.05.2020 20:00:00 13,9 12,0 9 5 SE 1014,6 20 0
31.05.2020 19:00:00 15,0 14,0 11 6 ESE - 10 -
31.05.2020 18:00:00 15,0 14,0 16 9 ESE - 10 -
31.05.2020 17:00:00 14,6 13,0 13 7 ESE 1014,5 20 54
31.05.2020 16:00:00 16,0 12,0 11 6 SSE - 10 -
31.05.2020 15:00:00 17,0 12,0 15 8 SE - 10 -
31.05.2020 14:00:00 17,8 11,6 13 7 ENE 1014,9 25 12
31.05.2020 13:00:00 18,0 12,0 9 5 NO - 10 -
31.05.2020 12:00:00 18,0 13,0 11 6 NNO - 10 -
31.05.2020 11:00:00 17,6 13,3 9 5 ONO 1015,5 20 42
31.05.2020 10:00:00 17,0 13,0 15 8 NO - 10 -
31.05.2020 09:00:00 16,0 13,0 11 6 NO - 10 -

tt = Temperatura
td = dewpoint
ff = velocità del vento
dd = direzione del vento
ppp = reduced air pressure
vv = visibility
sd = ore di luce

Stazioni seguenti

WeatherPro
AMSI
MeteoEarth